Station Historical Data
Daily Summary for January 8, 2017 Units:  English    Metric   Both
« Previous Day
Next Day »
Daily Weekly Monthly Yearly Custom
  High: Low: Average:
Temperature: 17.6 °F 11.1 °F 13.7 °F
Dew Point: 10.9 °F 0.9 °F 5.2 °F
Humidity: 81% 56% 69%
Wind Speed: 17.0mph 1.0mph 6.2mph
Wind Gust: 27.0mph - -
Wind- - West
Pressure: 30.66 in 30.25 in -
Precipitation: 0.00 in    
Historical Graphs
 
 
Tabular Data for January 8, 2017
Time Temperature Dew Point Pressure Wind Wind Speed Wind Gust Humidity Rainfall Rate (Hourly)
00:04 11.7 °F 3.2 °F 30.30 in West 6.0 mph 14.0 mph 68% 0.00 in
00:09 11.7 °F 3.2 °F 30.30 in West 7.0 mph 13.0 mph 68% 0.00 in
00:14 11.7 °F 2.8 °F 30.30 in West 6.0 mph 13.0 mph 67% 0.00 in
00:19 11.7 °F 2.8 °F 30.29 in West 6.0 mph 12.0 mph 67% 0.00 in
00:24 11.9 °F 3.0 °F 30.29 in WSW 13.0 mph 13.0 mph 67% 0.00 in
00:29 11.9 °F 3.0 °F 30.29 in West 6.0 mph 15.0 mph 67% 0.00 in
00:34 12.0 °F 3.1 °F 30.29 in West 7.0 mph 16.0 mph 67% 0.00 in
00:39 11.9 °F 3.0 °F 30.29 in West 7.0 mph 16.0 mph 67% 0.00 in
00:44 12.0 °F 3.1 °F 30.28 in West 7.0 mph 14.0 mph 67% 0.00 in
00:49 11.9 °F 3.0 °F 30.28 in West 7.0 mph 14.0 mph 67% 0.00 in
00:54 11.7 °F 2.8 °F 30.28 in West 7.0 mph 14.0 mph 67% 0.00 in
00:59 11.6 °F 2.8 °F 30.28 in WSW 2.0 mph 12.0 mph 67% 0.00 in
01:05 11.6 °F 2.8 °F 30.28 in West 6.0 mph 13.0 mph 67% 0.00 in
01:10 11.5 °F 2.7 °F 30.28 in West 7.0 mph 13.0 mph 67% 0.00 in
01:15 11.5 °F 2.7 °F 30.28 in West 5.0 mph 14.0 mph 67% 0.00 in
01:20 11.4 °F 2.6 °F 30.28 in West 6.0 mph 15.0 mph 67% 0.00 in
01:25 11.4 °F 2.6 °F 30.27 in West 6.0 mph 15.0 mph 67% 0.00 in
01:30 11.4 °F 2.6 °F 30.27 in West 5.0 mph 14.0 mph 67% 0.00 in
01:35 11.2 °F 2.7 °F 30.27 in WNW 5.0 mph 10.0 mph 68% 0.00 in
01:40 11.2 °F 2.7 °F 30.27 in WSW 2.0 mph 9.0 mph 68% 0.00 in
01:45 11.3 °F 2.8 °F 30.27 in West 4.0 mph 14.0 mph 68% 0.00 in
01:50 11.1 °F 2.6 °F 30.27 in West 8.0 mph 8.0 mph 68% 0.00 in
01:55 11.2 °F 3.0 °F 30.27 in West 6.0 mph 14.0 mph 69% 0.00 in
02:00 11.2 °F 3.0 °F 30.27 in West 6.0 mph 14.0 mph 69% 0.00 in
02:05 11.3 °F 3.1 °F 30.27 in West 6.0 mph 12.0 mph 69% 0.00 in
02:10 11.4 °F 3.2 °F 30.27 in West 7.0 mph 12.0 mph 69% 0.00 in
02:15 11.4 °F 3.2 °F 30.27 in West 7.0 mph 20.0 mph 69% 0.00 in
02:20 11.6 °F 3.4 °F 30.27 in West 6.0 mph 12.0 mph 69% 0.00 in
02:25 11.6 °F 3.4 °F 30.27 in West 7.0 mph 13.0 mph 69% 0.00 in
02:30 11.7 °F 3.5 °F 30.27 in West 6.0 mph 13.0 mph 69% 0.00 in
02:35 11.7 °F 3.5 °F 30.28 in West 8.0 mph 11.0 mph 69% 0.00 in
02:40 11.7 °F 3.5 °F 30.28 in West 6.0 mph 14.0 mph 69% 0.00 in
02:45 11.7 °F 3.8 °F 30.28 in WNW 12.0 mph 16.0 mph 70% 0.00 in
02:50 11.9 °F 3.7 °F 30.28 in West 10.0 mph 17.0 mph 69% 0.00 in
02:55 12.1 °F 3.9 °F 30.28 in West 9.0 mph 20.0 mph 69% 0.00 in
03:00 12.1 °F 3.9 °F 30.28 in West 5.0 mph 13.0 mph 69% 0.00 in
03:05 12.2 °F 4.0 °F 30.27 in West 7.0 mph 16.0 mph 69% 0.00 in
03:10 12.4 °F 3.8 °F 30.27 in West 7.0 mph 18.0 mph 68% 0.00 in
03:15 12.6 °F 4.0 °F 30.27 in WSW 8.0 mph 18.0 mph 68% 0.00 in
03:20 12.8 °F 4.2 °F 30.27 in West 8.0 mph 15.0 mph 68% 0.00 in
03:25 13.1 °F 4.5 °F 30.27 in West 8.0 mph 17.0 mph 68% 0.00 in
03:30 13.3 °F 4.7 °F 30.26 in West 8.0 mph 18.0 mph 68% 0.00 in
03:35 13.4 °F 4.8 °F 30.26 in West 8.0 mph 18.0 mph 68% 0.00 in
03:40 13.5 °F 4.9 °F 30.26 in WNW 11.0 mph 14.0 mph 68% 0.00 in
03:45 13.5 °F 5.2 °F 30.26 in WSW 6.0 mph 22.0 mph 69% 0.00 in
03:50 13.5 °F 5.5 °F 30.26 in WSW 8.0 mph 16.0 mph 70% 0.00 in
03:55 13.5 °F 5.8 °F 30.26 in WNW 14.0 mph 17.0 mph 71% 0.00 in
04:00 13.5 °F 6.1 °F 30.26 in NW 17.0 mph 19.0 mph 72% 0.00 in
04:05 13.5 °F 6.5 °F 30.25 in WNW 6.0 mph 19.0 mph 73% 0.00 in
04:10 13.6 °F 6.5 °F 30.25 in West 10.0 mph 19.0 mph 73% 0.00 in
04:15 13.6 °F 6.5 °F 30.26 in West 10.0 mph 19.0 mph 73% 0.00 in
04:20 13.5 °F 6.5 °F 30.25 in West 10.0 mph 21.0 mph 73% 0.00 in
04:25 13.4 °F 6.4 °F 30.25 in West 9.0 mph 21.0 mph 73% 0.00 in
04:30 13.3 °F 6.6 °F 30.26 in West 11.0 mph 17.0 mph 74% 0.00 in
04:35 13.2 °F 6.5 °F 30.26 in WSW 6.0 mph 17.0 mph 74% 0.00 in
04:40 13.0 °F 6.3 °F 30.26 in West 8.0 mph 17.0 mph 74% 0.00 in
04:45 12.9 °F 6.2 °F 30.26 in West 9.0 mph 19.0 mph 74% 0.00 in
04:50 12.8 °F 6.4 °F 30.26 in West 9.0 mph 19.0 mph 75% 0.00 in
04:54 12.7 °F 6.3 °F 30.26 in West 9.0 mph 21.0 mph 75% 0.00 in
04:59 12.7 °F 6.6 °F 30.27 in West 8.0 mph 18.0 mph 76% 0.00 in
05:05 12.7 °F 6.6 °F 30.27 in WSW 14.0 mph 20.0 mph 76% 0.00 in
05:09 12.6 °F 6.5 °F 30.27 in West 11.0 mph 20.0 mph 76% 0.00 in
05:15 12.7 °F 6.6 °F 30.27 in West 9.0 mph 19.0 mph 76% 0.00 in
05:25 12.7 °F 6.9 °F 30.27 in West 9.0 mph 19.0 mph 77% 0.00 in
05:30 12.8 °F 6.9 °F 30.28 in West 11.0 mph 17.0 mph 77% 0.00 in
05:35 12.8 °F 6.7 °F 30.27 in WSW 8.0 mph 17.0 mph 76% 0.00 in
05:40 12.7 °F 6.6 °F 30.28 in WSW 13.0 mph 14.0 mph 76% 0.00 in
05:45 12.7 °F 6.6 °F 30.28 in WNW 5.0 mph 14.0 mph 76% 0.00 in
05:50 12.8 °F 6.7 °F 30.28 in West 8.0 mph 17.0 mph 76% 0.00 in
05:55 13.0 °F 6.9 °F 30.28 in West 9.0 mph 20.0 mph 76% 0.00 in
05:59 12.9 °F 6.8 °F 30.29 in West 9.0 mph 16.0 mph 76% 0.00 in
06:04 12.9 °F 7.0 °F 30.29 in North 5.0 mph 13.0 mph 77% 0.00 in
06:09 13.0 °F 7.4 °F 30.30 in NW 8.0 mph 14.0 mph 78% 0.00 in
06:14 13.1 °F 7.5 °F 30.30 in WNW 7.0 mph 18.0 mph 78% 0.00 in
06:20 13.2 °F 7.6 °F 30.30 in WNW 7.0 mph 18.0 mph 78% 0.00 in
06:25 13.2 °F 7.6 °F 30.30 in WNW 5.0 mph 17.0 mph 78% 0.00 in
06:30 13.3 °F 7.7 °F 30.31 in West 8.0 mph 14.0 mph 78% 0.00 in
06:35 13.4 °F 7.8 °F 30.31 in WNW 13.0 mph 15.0 mph 78% 0.00 in
06:40 13.3 °F 7.7 °F 30.31 in WNW 7.0 mph 15.0 mph 78% 0.00 in
06:45 13.3 °F 8.0 °F 30.32 in WNW 8.0 mph 13.0 mph 79% 0.00 in
06:49 13.2 °F 7.9 °F 30.32 in West 6.0 mph 13.0 mph 79% 0.00 in
06:55 13.2 °F 7.9 °F 30.32 in West 6.0 mph 12.0 mph 79% 0.00 in
07:00 13.0 °F 7.7 °F 30.33 in West 6.0 mph 12.0 mph 79% 0.00 in
07:05 13.0 °F 8.0 °F 30.33 in West 4.0 mph 10.0 mph 80% 0.00 in
07:10 12.9 °F 7.6 °F 30.33 in WSW 4.0 mph 11.0 mph 79% 0.00 in
07:15 12.8 °F 7.8 °F 30.33 in West 4.0 mph 11.0 mph 80% 0.00 in
07:19 12.9 °F 7.9 °F 30.34 in West 3.0 mph 10.0 mph 80% 0.00 in
07:24 13.1 °F 8.1 °F 30.34 in WSW 3.0 mph 11.0 mph 80% 0.00 in
07:29 13.2 °F 7.9 °F 30.34 in West 4.0 mph 9.0 mph 79% 0.00 in
07:35 13.2 °F 7.9 °F 30.34 in West 2.0 mph 9.0 mph 79% 0.00 in
07:40 13.3 °F 8.0 °F 30.34 in WSW 6.0 mph 9.0 mph 79% 0.00 in
07:45 13.3 °F 8.0 °F 30.34 in WNW 5.0 mph 8.0 mph 79% 0.00 in
07:49 13.4 °F 8.1 °F 30.34 in WSW 5.0 mph 9.0 mph 79% 0.00 in
07:55 13.6 °F 8.3 °F 30.34 in WSW 5.0 mph 13.0 mph 79% 0.00 in
08:00 13.5 °F 8.2 °F 30.34 in WSW 5.0 mph 9.0 mph 79% 0.00 in
08:04 13.6 °F 8.0 °F 30.35 in West 4.0 mph 9.0 mph 78% 0.00 in
08:10 13.7 °F 7.5 °F 30.35 in West 5.0 mph 11.0 mph 76% 0.00 in
08:15 14.0 °F 7.5 °F 30.35 in SW 3.0 mph 12.0 mph 75% 0.00 in
09:40 16.5 °F 7.1 °F 30.39 in West 10.0 mph 20.0 mph 66% 0.00 in
09:45 16.4 °F 7.0 °F 30.39 in WNW 8.0 mph 19.0 mph 66% 0.00 in
09:50 16.2 °F 7.2 °F 30.40 in West 5.0 mph 20.0 mph 67% 0.00 in
09:54 15.9 °F 8.2 °F 30.40 in WNW 11.0 mph 15.0 mph 71% 0.00 in
09:59 15.7 °F 8.0 °F 30.40 in WNW 9.0 mph 17.0 mph 71% 0.00 in
10:04 15.6 °F 7.2 °F 30.41 in NW 10.0 mph 16.0 mph 69% 0.00 in
10:09 15.8 °F 6.4 °F 30.41 in WNW 9.0 mph 19.0 mph 66% 0.00 in
10:14 15.7 °F 5.3 °F 30.41 in West 8.0 mph 27.0 mph 63% 0.00 in
10:19 15.5 °F 5.5 °F 30.41 in NNW 4.0 mph 15.0 mph 64% 0.00 in
10:24 15.9 °F 7.2 °F 30.41 in WNW 8.0 mph 15.0 mph 68% 0.00 in
10:30 16.4 °F 7.0 °F 30.41 in WNW 9.0 mph 14.0 mph 66% 0.00 in
10:34 16.8 °F 6.0 °F 30.41 in WNW 8.0 mph 15.0 mph 62% 0.00 in
10:45 16.9 °F 5.0 °F 30.42 in WNW 10.0 mph 21.0 mph 59% 0.00 in
10:50 16.6 °F 5.1 °F 30.42 in WSW 7.0 mph 16.0 mph 60% 0.00 in
10:55 17.0 °F 6.2 °F 30.42 in North 4.0 mph 18.0 mph 62% 0.00 in
10:59 17.1 °F 5.2 °F 30.42 in WNW 10.0 mph 23.0 mph 59% 0.00 in
11:05 16.7 °F 4.8 °F 30.42 in West 10.0 mph 23.0 mph 59% 0.00 in
11:09 16.5 °F 5.4 °F 30.43 in West 13.0 mph 19.0 mph 61% 0.00 in
11:14 16.6 °F 5.8 °F 30.43 in NW 4.0 mph 15.0 mph 62% 0.00 in
11:19 16.4 °F 6.0 °F 30.43 in West 3.0 mph 17.0 mph 63% 0.00 in
11:24 16.4 °F 7.0 °F 30.43 in NNW 5.0 mph 12.0 mph 66% 0.00 in
11:29 15.9 °F 8.5 °F 30.43 in NW 8.0 mph 16.0 mph 72% 0.00 in
11:34 15.8 °F 8.7 °F 30.43 in WNW 8.0 mph 13.0 mph 73% 0.00 in
11:39 16.0 °F 8.6 °F 30.43 in WNW 6.0 mph 13.0 mph 72% 0.00 in
11:44 16.3 °F 6.9 °F 30.43 in WNW 6.0 mph 14.0 mph 66% 0.00 in
11:50 17.5 °F 8.1 °F 30.44 in WNW 6.0 mph 18.0 mph 66% 0.00 in
11:54 17.2 °F 7.8 °F 30.44 in NW 6.0 mph 18.0 mph 66% 0.00 in
12:00 16.5 °F 7.1 °F 30.44 in WNW 6.0 mph 13.0 mph 66% 0.00 in
12:05 16.3 °F 6.9 °F 30.44 in WNW 10.0 mph 16.0 mph 66% 0.00 in
12:14 16.4 °F 6.7 °F 30.45 in NNE 2.0 mph 14.0 mph 65% 0.00 in
12:24 16.5 °F 8.1 °F 30.45 in WNW 4.0 mph 13.0 mph 69% 0.00 in
12:29 16.2 °F 8.4 °F 30.45 in WNW 15.0 mph 15.0 mph 71% 0.00 in
12:34 15.9 °F 9.1 °F 30.46 in NW 5.0 mph 15.0 mph 74% 0.00 in
12:39 15.3 °F 9.1 °F 30.46 in NW 6.0 mph 15.0 mph 76% 0.00 in
12:44 16.2 °F 10.0 °F 30.46 in NW 5.0 mph 10.0 mph 76% 0.00 in
12:49 17.6 °F 10.1 °F 30.47 in WNW 5.0 mph 16.0 mph 72% 0.00 in
12:54 16.8 °F 9.6 °F 30.47 in WNW 6.0 mph 16.0 mph 73% 0.00 in
12:59 16.3 °F 9.2 °F 30.47 in NW 5.0 mph 13.0 mph 73% 0.00 in
13:05 16.4 °F 9.6 °F 30.47 in NW 10.0 mph 13.0 mph 74% 0.00 in
13:10 15.8 °F 9.3 °F 30.47 in WNW 4.0 mph 15.0 mph 75% 0.00 in
13:14 15.5 °F 8.7 °F 30.47 in WNW 6.0 mph 15.0 mph 74% 0.00 in
13:19 15.4 °F 9.2 °F 30.48 in NW 3.0 mph 12.0 mph 76% 0.00 in
13:24 15.3 °F 9.1 °F 30.48 in WNW 7.0 mph 14.0 mph 76% 0.00 in
13:29 15.0 °F 9.7 °F 30.48 in NW 2.0 mph 11.0 mph 79% 0.00 in
13:34 15.5 °F 10.1 °F 30.48 in WSW 5.0 mph 10.0 mph 79% 0.00 in
13:39 16.6 °F 10.9 °F 30.48 in NW 4.0 mph 10.0 mph 78% 0.00 in
13:44 16.6 °F 10.9 °F 30.48 in NW 4.0 mph 10.0 mph 78% 0.00 in
13:49 16.1 °F 9.9 °F 30.49 in NNW 5.0 mph 14.0 mph 76% 0.00 in
13:54 15.1 °F 9.8 °F 30.49 in NW 6.0 mph 14.0 mph 79% 0.00 in
13:59 14.8 °F 10.0 °F 30.49 in WNW 6.0 mph 14.0 mph 81% 0.00 in
14:04 15.0 °F 9.9 °F 30.49 in NW 5.0 mph 10.0 mph 80% 0.00 in
14:14 15.3 °F 9.7 °F 30.50 in West 8.0 mph 11.0 mph 78% 0.00 in
14:19 15.0 °F 9.4 °F 30.50 in WNW 6.0 mph 14.0 mph 78% 0.00 in
14:24 15.2 °F 9.0 °F 30.50 in WNW 6.0 mph 17.0 mph 76% 0.00 in
14:29 15.2 °F 7.8 °F 30.50 in West 6.0 mph 16.0 mph 72% 0.00 in
14:34 15.2 °F 6.8 °F 30.50 in West 7.0 mph 12.0 mph 69% 0.00 in
14:39 15.7 °F 6.3 °F 30.51 in NNW 5.0 mph 11.0 mph 66% 0.00 in
14:44 15.6 °F 5.6 °F 30.51 in NW 8.0 mph 17.0 mph 64% 0.00 in
14:49 15.9 °F 5.5 °F 30.51 in NW 6.0 mph 17.0 mph 63% 0.00 in
14:54 16.2 °F 5.5 °F 30.51 in NW 6.0 mph 15.0 mph 62% 0.00 in
14:59 16.6 °F 5.5 °F 30.52 in NW 7.0 mph 16.0 mph 61% 0.00 in
15:04 16.8 °F 6.0 °F 30.52 in WNW 7.0 mph 16.0 mph 62% 0.00 in
15:09 16.7 °F 5.6 °F 30.52 in NNW 7.0 mph 15.0 mph 61% 0.00 in
15:14 16.2 °F 5.1 °F 30.52 in NW 5.0 mph 16.0 mph 61% 0.00 in
15:19 16.4 °F 4.2 °F 30.53 in NW 9.0 mph 15.0 mph 58% 0.00 in
15:24 16.3 °F 4.5 °F 30.53 in WNW 7.0 mph 15.0 mph 59% 0.00 in
15:29 15.7 °F 4.3 °F 30.53 in NW 7.0 mph 14.0 mph 60% 0.00 in
15:34 15.5 °F 3.7 °F 30.53 in WNW 6.0 mph 12.0 mph 59% 0.00 in
15:39 15.6 °F 3.4 °F 30.54 in WNW 6.0 mph 12.0 mph 58% 0.00 in
15:44 15.4 °F 3.2 °F 30.54 in WSW 5.0 mph 16.0 mph 58% 0.00 in
15:49 15.3 °F 2.4 °F 30.54 in WNW 10.0 mph 18.0 mph 56% 0.00 in
15:54 15.0 °F 2.1 °F 30.54 in WNW 13.0 mph 19.0 mph 56% 0.00 in
15:59 14.7 °F 2.2 °F 30.54 in WNW 8.0 mph 19.0 mph 57% 0.00 in
16:04 14.7 °F 2.6 °F 30.55 in WNW 6.0 mph 11.0 mph 58% 0.00 in
16:09 14.8 °F 2.7 °F 30.55 in WSW 11.0 mph 14.0 mph 58% 0.00 in
16:14 14.8 °F 2.3 °F 30.55 in West 8.0 mph 16.0 mph 57% 0.00 in
16:24 14.4 °F 1.9 °F 30.55 in WNW 8.0 mph 16.0 mph 57% 0.00 in
16:29 14.2 °F 2.1 °F 30.56 in WNW 8.0 mph 16.0 mph 58% 0.00 in
16:34 14.0 °F 2.3 °F 30.56 in WNW 9.0 mph 16.0 mph 59% 0.00 in
16:39 14.0 °F 2.7 °F 30.56 in WNW 8.0 mph 16.0 mph 60% 0.00 in
16:44 13.9 °F 3.3 °F 30.56 in WNW 7.0 mph 15.0 mph 62% 0.00 in
16:49 14.0 °F 2.3 °F 30.56 in WNW 6.0 mph 10.0 mph 59% 0.00 in
16:54 14.0 °F 1.9 °F 30.57 in West 5.0 mph 13.0 mph 58% 0.00 in
16:59 14.0 °F 1.9 °F 30.57 in WNW 9.0 mph 13.0 mph 58% 0.00 in
17:04 13.8 °F 2.1 °F 30.57 in WNW 6.0 mph 13.0 mph 59% 0.00 in
17:09 13.7 °F 2.0 °F 30.58 in WNW 6.0 mph 11.0 mph 59% 0.00 in
17:14 13.5 °F 2.5 °F 30.57 in WNW 8.0 mph 11.0 mph 61% 0.00 in
17:19 13.4 °F 2.4 °F 30.58 in West 4.0 mph 10.0 mph 61% 0.00 in
17:24 13.4 °F 2.1 °F 30.58 in West 13.0 mph 14.0 mph 60% 0.00 in
17:29 13.5 °F 1.8 °F 30.58 in WNW 4.0 mph 13.0 mph 59% 0.00 in
17:34 13.4 °F 2.1 °F 30.58 in West 4.0 mph 9.0 mph 60% 0.00 in
17:39 13.3 °F 1.3 °F 30.58 in WNW 6.0 mph 15.0 mph 58% 0.00 in
17:44 13.3 °F 1.3 °F 30.59 in West 5.0 mph 11.0 mph 58% 0.00 in
17:49 13.2 °F 1.2 °F 30.59 in WNW 5.0 mph 11.0 mph 58% 0.00 in
17:54 13.1 °F 1.1 °F 30.59 in WNW 2.0 mph 10.0 mph 58% 0.00 in
17:59 12.9 °F 1.2 °F 30.60 in WSW 3.0 mph 6.0 mph 59% 0.00 in
18:04 12.7 °F 1.4 °F 30.60 in WSW 10.0 mph 14.0 mph 60% 0.00 in
18:09 12.8 °F 1.5 °F 30.60 in West 4.0 mph 11.0 mph 60% 0.00 in
18:14 12.7 °F 1.4 °F 30.60 in WNW 5.0 mph 11.0 mph 60% 0.00 in
18:19 12.5 °F 1.6 °F 30.60 in WNW 4.0 mph 9.0 mph 61% 0.00 in
18:24 12.5 °F 0.9 °F 30.60 in West 4.0 mph 7.0 mph 59% 0.00 in
18:29 12.5 °F 0.9 °F 30.61 in West 3.0 mph 8.0 mph 59% 0.00 in
18:34 12.5 °F 1.2 °F 30.61 in SW 4.0 mph 9.0 mph 60% 0.00 in
18:39 12.5 °F 1.2 °F 30.61 in WSW 7.0 mph 12.0 mph 60% 0.00 in
18:44 12.4 °F 1.1 °F 30.62 in West 6.0 mph 11.0 mph 60% 0.00 in
18:49 12.2 °F 1.3 °F 30.62 in West 3.0 mph 10.0 mph 61% 0.00 in
18:54 12.1 °F 1.6 °F 30.62 in West 5.0 mph 8.0 mph 62% 0.00 in
18:59 12.2 °F 1.7 °F 30.62 in NNW 5.0 mph 10.0 mph 62% 0.00 in
19:04 12.2 °F 1.7 °F 30.62 in SW 4.0 mph 11.0 mph 62% 0.00 in
19:09 12.0 °F 1.8 °F 30.62 in West 5.0 mph 11.0 mph 63% 0.00 in
19:14 12.1 °F 1.9 °F 30.63 in West 2.0 mph 12.0 mph 63% 0.00 in
19:19 12.2 °F 2.3 °F 30.63 in West 4.0 mph 12.0 mph 64% 0.00 in
19:24 12.3 °F 2.1 °F 30.64 in West 5.0 mph 12.0 mph 63% 0.00 in
19:29 12.4 °F 2.5 °F 30.64 in West 5.0 mph 12.0 mph 64% 0.00 in
19:34 12.4 °F 2.5 °F 30.64 in West 5.0 mph 10.0 mph 64% 0.00 in
19:39 12.4 °F 2.5 °F 30.64 in West 7.0 mph 10.0 mph 64% 0.00 in
19:44 12.4 °F 2.5 °F 30.64 in WSW 5.0 mph 11.0 mph 64% 0.00 in
19:49 12.4 °F 2.9 °F 30.64 in WNW 5.0 mph 10.0 mph 65% 0.00 in
19:54 12.4 °F 2.5 °F 30.64 in West 5.0 mph 10.0 mph 64% 0.00 in
19:59 12.5 °F 3.0 °F 30.64 in WSW 10.0 mph 12.0 mph 65% 0.00 in
20:04 12.5 °F 3.0 °F 30.65 in WSW 1.0 mph 10.0 mph 65% 0.00 in
20:09 12.6 °F 3.4 °F 30.65 in WSW 5.0 mph 9.0 mph 66% 0.00 in
20:14 12.6 °F 3.1 °F 30.65 in WSW 3.0 mph 9.0 mph 65% 0.00 in
20:19 12.6 °F 3.1 °F 30.65 in West 5.0 mph 10.0 mph 65% 0.00 in
20:24 12.7 °F 3.1 °F 30.65 in West 4.0 mph 11.0 mph 65% 0.00 in
20:29 12.8 °F 3.2 °F 30.65 in West 5.0 mph 11.0 mph 65% 0.00 in
20:34 12.7 °F 3.5 °F 30.65 in West 4.0 mph 8.0 mph 66% 0.00 in
20:39 12.7 °F 3.5 °F 30.65 in West 5.0 mph 14.0 mph 66% 0.00 in
20:44 12.6 °F 3.1 °F 30.65 in West 5.0 mph 14.0 mph 65% 0.00 in
20:49 12.5 °F 3.0 °F 30.65 in West 5.0 mph 14.0 mph 65% 0.00 in
20:59 12.0 °F 2.8 °F 30.66 in West 4.0 mph 8.0 mph 66% 0.00 in
21:04 11.9 °F 3.0 °F 30.66 in West 4.0 mph 8.0 mph 67% 0.00 in
21:09 11.8 °F 2.9 °F 30.66 in WSW 4.0 mph 8.0 mph 67% 0.00 in
21:14 11.6 °F 3.1 °F 30.66 in WSW 4.0 mph 10.0 mph 68% 0.00 in
21:19 11.6 °F 3.1 °F 30.66 in WSW 2.0 mph 7.0 mph 68% 0.00 in
21:29 11.7 °F 3.5 °F 30.66 in WSW 3.0 mph 8.0 mph 69% 0.00 in
21:34 11.7 °F 3.8 °F 30.66 in WSW 5.0 mph 8.0 mph 70% 0.00 in
21:39 12.0 °F 3.8 °F 30.66 in West 4.0 mph 11.0 mph 69% 0.00 in
21:49 12.4 °F 4.2 °F 30.66 in West 4.0 mph 9.0 mph 69% 0.00 in
21:59 12.6 °F 4.3 °F 30.66 in West 3.0 mph 9.0 mph 69% 0.00 in
22:04 12.7 °F 4.8 °F 30.65 in SW 2.0 mph 7.0 mph 70% 0.00 in
22:09 12.8 °F 4.9 °F 30.65 in SW 4.0 mph 7.0 mph 70% 0.00 in
22:14 12.9 °F 5.0 °F 30.65 in West 3.0 mph 7.0 mph 70% 0.00 in
22:19 13.0 °F 5.0 °F 30.65 in WSW 3.0 mph 7.0 mph 70% 0.00 in
22:24 13.0 °F 5.0 °F 30.65 in West 4.0 mph 8.0 mph 70% 0.00 in
22:29 13.1 °F 5.1 °F 30.65 in WNW 2.0 mph 7.0 mph 70% 0.00 in
22:34 13.2 °F 5.2 °F 30.65 in West 2.0 mph 8.0 mph 70% 0.00 in
22:39 13.3 °F 5.6 °F 30.64 in WNW 3.0 mph 7.0 mph 71% 0.00 in
22:44 13.4 °F 5.7 °F 30.64 in West 2.0 mph 6.0 mph 71% 0.00 in
22:49 13.5 °F 5.8 °F 30.64 in West 3.0 mph 7.0 mph 71% 0.00 in
22:54 13.6 °F 5.9 °F 30.64 in West 3.0 mph 7.0 mph 71% 0.00 in
22:59 13.8 °F 6.1 °F 30.64 in West 3.0 mph 6.0 mph 71% 0.00 in
23:04 13.9 °F 6.2 °F 30.64 in WSW 2.0 mph 6.0 mph 71% 0.00 in
23:09 14.1 °F 6.4 °F 30.64 in West 4.0 mph 6.0 mph 71% 0.00 in
23:19 14.3 °F 6.9 °F 30.64 in West 3.0 mph 9.0 mph 72% 0.00 in
23:24 14.3 °F 6.9 °F 30.64 in West 5.0 mph 7.0 mph 72% 0.00 in
23:29 14.4 °F 7.0 °F 30.64 in WNW 3.0 mph 7.0 mph 72% 0.00 in
23:34 14.4 °F 7.0 °F 30.64 in WNW 3.0 mph 5.0 mph 72% 0.00 in
23:39 14.4 °F 7.0 °F 30.64 in NW 2.0 mph 5.0 mph 72% 0.00 in
23:44 14.5 °F 7.1 °F 30.64 in WNW 2.0 mph 5.0 mph 72% 0.00 in
23:49 14.6 °F 7.2 °F 30.64 in West 4.0 mph 5.0 mph 72% 0.00 in
23:54 14.7 °F 7.3 °F 30.63 in West 3.0 mph 5.0 mph 72% 0.00 in
23:59 14.9 °F 7.5 °F 30.63 in West 3.0 mph 6.0 mph 72% 0.00 in
Buffalo, New York, USA
Compliments of Weather Underground - 2.25 mb